DW5657 Weather Reports


Display with metric or nautical units.
time (UTC)temp
F
wind
direction
speed
MPH
gust
MPH
rain 1hr
in
rain 24hr
in
rain mn
in
humidity
%
barometer
mb
20260507165703 58 78 1.0 3.0 0.00 0.00 0.00 45 1014.8
20260507164704 58 75 3.0 8.0 0.00 0.00 0.00 43 1014.9
20260507164204 58 117 1.0 6.0 0.00 0.00 0.00 44 1014.9
20260507163703 58 113 2.0 6.0 0.00 0.00 0.00 44 1015.0
20260507163203 57 105 1.0 5.0 0.00 0.00 0.00 45 1015.0
20260507162703 57 90 1.0 5.0 0.00 0.00 0.00 45 1015.1
20260507161703 57 68 2.0 7.0 0.00 0.00 0.00 44 1015.0
20260507160705 57 49 2.0 6.0 0.00 0.00 0.00 43 1015.2
20260507160205 57 110 2.0 5.0 0.00 0.00 0.00 44 1015.2
20260507155704 57 95 2.0 7.0 0.00 0.00 0.00 43 1015.1
20260507155203 56 75 2.0 5.0 0.00 0.00 0.00 44 1015.1
20260507154703 56 137 2.0 5.0 0.00 0.00 0.00 45 1015.1
20260507154203 56 16 1.0 8.0 0.00 0.00 0.00 45 1015.1
20260507153703 56 122 2.0 8.0 0.00 0.00 0.00 45 1015.1
20260507153204 55 130 2.0 9.0 0.00 0.00 0.00 47 1015.1
20260507152703 55 112 2.0 6.0 0.00 0.00 0.00 47 1015.0
20260507152203 55 94 3.0 6.0 0.00 0.00 0.00 45 1014.9
20260507151705 55 129 3.0 6.0 0.00 0.00 0.00 47 1015.0
20260507151203 55 149 2.0 6.0 0.00 0.00 0.00 47 1014.9
20260507150704 55 150 1.0 3.0 0.00 0.01 0.00 49 1014.9
20260507150203 55 171 2.0 5.0 0.00 0.01 0.00 46 1014.9
20260507145703 55 155 1.0 5.0 0.00 0.01 0.00 47 1014.9
20260507145204 55 142 3.0 9.0 0.00 0.01 0.00 46 1014.9
20260507144703 55 131 1.0 5.0 0.00 0.01 0.00 46 1014.9
20260507144203 55 207 1.0 5.0 0.00 0.01 0.00 48 1014.9
20260507143704 54 67 1.0 5.0 0.00 0.01 0.00 46 1015.0
20260507142705 54 127 1.0 7.0 0.00 0.01 0.00 47 1015.0
20260507142204 53 32 2.0 5.0 0.00 0.01 0.00 49 1015.0
20260507141703 53 128 1.0 2.0 0.00 0.01 0.00 49 1015.0
20260507141203 53 151 2.0 5.0 0.00 0.01 0.00 49 1015.1
20260507140704 53 113 2.0 6.0 0.00 0.01 0.00 49 1015.2
20260507140203 52 172 0.0 1.0 0.00 0.01 0.00 52 1015.1
20260507135703 52 132 0.0 3.0 0.00 0.01 0.00 51 1015.1
20260507135205 52 132 1.0 5.0 0.00 0.01 0.00 52 1015.0
20260507134703 51 106 2.0 6.0 0.00 0.01 0.00 52 1015.0
20260507134203 51 105 1.0 3.0 0.00 0.01 0.00 54 1015.0
20260507133204 50 138 0.0 5.0 0.00 0.01 0.00 61 1015.0
20260507132703 50 144 2.0 7.0 0.00 0.01 0.00 60 1015.1
20260507131703 49 113 0.0 3.0 0.00 0.01 0.00 64 1015.0
20260507131203 49 140 1.0 3.0 0.00 0.01 0.00 65 1015.1
20260507130703 48 149 0.0 3.0 0.00 0.01 0.00 67 1015.0
20260507130203 48 27 1.0 3.0 0.00 0.01 0.00 68 1014.9
20260507125704 47 171 0.0 2.0 0.00 0.01 0.00 70 1015.0
20260507124204 46 180 0.0 0.0 0.00 0.01 0.00 74 1015.0
20260507123203 45 354 0.0 1.0 0.00 0.01 0.00 75 1015.0
20260507122705 45 193 1.0 5.0 0.00 0.01 0.00 76 1015.2
20260507121704 44 202 0.0 0.0 0.00 0.01 0.00 77 1015.2
20260507121204 44 201 0.0 0.0 0.00 0.01 0.00 79 1015.1
20260507120703 43 194 0.0 5.0 0.00 0.01 0.00 81 1015.1
20260507120203 43 200 0.0 0.0 0.00 0.01 0.00 82 1015.1
20260507115704 43 195 0.0 0.0 0.00 0.01 0.00 84 1015.1
20260507115203 42 197 0.0 0.0 0.00 0.01 0.00 85 1015.0
20260507113704 41 0 0.0 0.0 0.00 0.01 0.00 89 1015.0
20260507113203 41 183 0.0 0.0 0.00 0.01 0.00 89 1015.0
20260507112703 41 140 0.0 0.0 0.00 0.01 0.00 89 1015.0
20260507112203 41 138 0.0 0.0 0.00 0.01 0.00 89 1015.0
20260507111703 41 137 0.0 0.0 0.00 0.01 0.00 88 1014.9
20260507111204 41 136 0.0 0.0 0.00 0.01 0.00 88 1014.9
20260507110704 41 138 0.0 0.0 0.00 0.01 0.00 88 1014.8
20260507110204 41 137 0.0 0.0 0.00 0.01 0.00 88 1014.7
20260507105703 41 136 0.0 0.0 0.00 0.01 0.00 88 1014.6
20260507104703 41 135 0.0 0.0 0.00 0.01 0.00 88 1014.5
20260507103703 41 136 0.0 0.0 0.00 0.01 0.00 88 1014.4
20260507103203 41 135 0.0 0.0 0.00 0.01 0.00 88 1014.4
20260507102703 41 135 0.0 0.0 0.00 0.01 0.00 88 1014.4
20260507102204 41 134 0.0 0.0 0.00 0.01 0.00 88 1014.4
20260507101204 41 134 0.0 0.0 0.00 0.01 0.00 88 1014.4
20260507100703 41 134 0.0 0.0 0.00 0.01 0.00 88 1014.4
20260507100203 41 135 0.0 0.0 0.00 0.01 0.00 87 1014.4
20260507095703 42 134 0.0 0.0 0.00 0.01 0.00 87 1014.4
20260507095203 42 133 0.0 0.0 0.00 0.01 0.00 87 1014.4
20260507093704 42 134 0.0 0.0 0.00 0.01 0.00 86 1014.5
20260507093204 42 136 0.0 0.0 0.00 0.01 0.00 87 1014.4
20260507092703 42 136 0.0 0.0 0.00 0.01 0.00 86 1014.3
20260507092204 42 136 0.0 0.0 0.00 0.01 0.00 87 1014.3
20260507091704 42 135 0.0 0.0 0.00 0.01 0.00 87 1014.2
20260507091203 42 136 0.0 0.0 0.00 0.01 0.00 86 1014.2
20260507090703 42 136 0.0 0.0 0.00 0.01 0.00 86 1014.2
20260507090203 42 136 0.0 0.0 0.00 0.01 0.00 86 1014.2
20260507085703 42 136 0.0 0.0 0.00 0.01 0.00 86 1014.1
20260507085204 42 135 0.0 0.0 0.00 0.01 0.00 86 1014.1
20260507084704 42 135 0.0 0.0 0.00 0.01 0.00 86 1014.0
20260507084204 42 135 0.0 0.0 0.00 0.01 0.00 85 1014.0
20260507083703 42 135 0.0 0.0 0.00 0.01 0.00 85 1014.0
20260507083203 43 136 0.0 0.0 0.00 0.01 0.00 85 1014.0
20260507082704 43 135 0.0 0.0 0.00 0.01 0.00 85 1013.9
20260507082203 43 135 0.0 0.0 0.00 0.01 0.00 85 1013.9
20260507081704 43 135 0.0 0.0 0.00 0.01 0.00 84 1013.9
20260507081203 43 134 0.0 0.0 0.00 0.01 0.00 84 1013.8
20260507080704 43 134 0.0 0.0 0.00 0.01 0.00 84 1013.9
20260507080204 43 134 0.0 0.0 0.00 0.01 0.00 84 1013.8
20260507075704 43 134 0.0 0.0 0.00 0.01 0.00 84 1013.8
20260507074204 43 133 0.0 0.0 0.00 0.01 0.00 84 1013.8
20260507073703 44 133 0.0 0.0 0.00 0.01 0.00 84 1013.8
20260507073204 44 133 0.0 0.0 0.00 0.01 0.00 84 1013.9
20260507072203 44 132 0.0 0.0 0.00 0.01 0.00 83 1013.9
20260507071703 44 133 0.0 0.0 0.00 0.01 0.00 83 1013.9
20260507070704 44 135 0.0 0.0 0.00 0.01 0.00 83 1013.8
20260507070203 44 134 0.0 0.0 0.00 0.01 0.00 83 1013.8
20260507065703 44 134 0.0 0.0 0.00 0.01 0.00 83 1013.8
20260507065204 44 133 0.0 0.0 0.00 0.01 0.00 83 1013.9
20260507064703 45 133 0.0 0.0 0.00 0.01 0.00 82 1013.9
20260507064210 45 132 0.0 0.0 0.00 0.01 0.00 82 1014.0
20260507063204 45 132 0.0 0.0 0.00 0.01 0.00 82 1014.1
20260507062703 45 132 0.0 0.0 0.00 0.01 0.00 82 1014.1
20260507062204 45 131 0.0 0.0 0.00 0.01 0.00 82 1014.0
20260507061704 45 130 0.0 0.0 0.00 0.01 0.00 82 1013.9
20260507061203 45 129 0.0 0.0 0.00 0.01 0.00 82 1013.9
20260507060705 45 129 0.0 0.0 0.00 0.01 0.00 82 1014.0
20260507055704 46 129 0.0 0.0 0.00 0.01 0.00 81 1014.0
20260507054704 46 127 0.0 0.0 0.00 0.01 0.00 81 1014.0
20260507054204 46 127 0.0 0.0 0.00 0.01 0.00 81 1014.1
20260507053703 46 126 0.0 0.0 0.00 0.01 0.00 81 1014.1
20260507053204 46 126 0.0 0.0 0.00 0.01 0.00 81 1014.2
20260507052205 46 127 0.0 0.0 0.00 0.01 0.00 80 1014.0
20260507051703 46 126 0.0 0.0 0.00 0.01 0.00 80 1014.0
20260507051205 46 124 0.0 0.0 0.00 0.01 0.00 79 1014.0
20260507045704 47 126 0.0 0.0 0.00 0.03 0.00 80 1014.2
20260507045203 47 125 0.0 0.0 0.00 0.03 0.00 80 1014.2
20260507044704 47 124 0.0 0.0 0.00 0.03 0.00 80 1014.2
20260507043704 47 124 0.0 0.0 0.00 0.03 0.00 79 1014.2
20260507043203 47 126 0.0 0.0 0.00 0.03 0.00 79 1014.2
20260507042705 47 125 0.0 0.0 0.00 0.03 0.00 78 1014.0
20260507041703 47 124 0.0 0.0 0.00 0.03 0.00 78 1014.1
20260507041203 47 121 0.0 0.0 0.00 0.03 0.00 78 1014.1
20260507040703 48 120 0.0 0.0 0.00 0.03 0.00 78 1014.1
20260507040204 48 118 0.0 0.0 0.00 0.03 0.00 78 1014.1
20260507035204 48 121 0.0 0.0 0.00 0.03 0.03 76 1014.0
20260507034704 48 121 0.0 0.0 0.00 0.03 0.03 76 1014.0
20260507033203 48 119 0.0 0.0 0.00 0.03 0.03 76 1014.1
20260507032704 49 119 0.0 0.0 0.00 0.03 0.03 75 1014.1
20260507032203 49 120 0.0 0.0 0.00 0.03 0.03 75 1014.1
20260507031705 49 119 0.0 0.0 0.00 0.03 0.03 75 1014.1
20260507030703 49 117 0.0 0.0 0.00 0.03 0.03 74 1014.2
20260507030204 49 115 0.0 0.0 0.00 0.03 0.03 74 1014.2
20260507025703 50 116 0.0 0.0 0.00 0.03 0.03 74 1014.2
20260507025204 50 115 0.0 0.0 0.00 0.03 0.03 73 1014.2
20260507024204 50 114 0.0 0.0 0.00 0.03 0.03 73 1014.1
20260507023704 50 113 0.0 0.0 0.00 0.03 0.03 72 1014.1
20260507023204 51 112 0.0 0.0 0.00 0.03 0.03 71 1014.1
20260507022205 51 112 0.0 0.0 0.00 0.03 0.03 71 1014.0
20260507021704 51 115 0.0 0.0 0.00 0.03 0.03 70 1014.0
20260507021204 51 115 0.0 0.0 0.00 0.03 0.03 70 1014.0
20260507020205 52 116 0.0 0.0 0.00 0.03 0.03 69 1013.8
20260507015704 52 113 0.0 0.0 0.00 0.03 0.03 69 1013.9
20260507015203 52 113 0.0 0.0 0.00 0.03 0.03 68 1013.9
20260507014204 53 112 0.0 0.0 0.00 0.03 0.03 66 1013.7
20260507013703 53 112 0.0 0.0 0.00 0.03 0.03 66 1013.7
20260507012704 54 107 0.0 0.0 0.00 0.03 0.03 64 1013.5
20260507012204 54 107 0.0 0.0 0.00 0.03 0.03 63 1013.5
20260507011704 54 105 0.0 0.0 0.00 0.03 0.03 62 1013.2
20260507010704 54 108 0.0 0.0 0.00 0.03 0.03 62 1013.4
20260507010203 55 105 0.0 0.0 0.00 0.03 0.03 62 1013.4
20260507005704 55 104 0.0 0.0 0.00 0.03 0.03 61 1013.4
20260507005203 55 105 0.0 0.0 0.00 0.03 0.03 60 1013.2
20260507004704 55 104 0.0 0.0 0.00 0.03 0.03 60 1013.4
20260507004204 55 103 0.0 0.0 0.00 0.03 0.03 60 1013.2
20260507003703 55 103 0.0 0.0 0.00 0.03 0.03 60 1013.4
20260507003204 56 102 0.0 0.0 0.00 0.03 0.03 59 1013.2
20260507002704 56 100 0.0 0.0 0.00 0.03 0.03 59 1013.1
20260507002204 56 100 0.0 0.0 0.00 0.03 0.03 58 1013.0
20260507001705 56 99 1.0 3.0 0.00 0.03 0.03 59 1013.1
20260507001203 56 168 0.0 0.0 0.00 0.03 0.03 57 1013.0
20260507000703 57 163 0.0 2.0 0.00 0.03 0.03 57 1012.9
20260507000205 57 52 0.0 2.0 0.00 0.03 0.03 57 1013.0
20260506235704 57 11 0.0 1.0 0.00 0.03 0.03 57 1012.9
20260506235203 57 135 0.0 2.0 0.00 0.03 0.03 56 1012.7
20260506233704 58 130 0.0 3.0 0.00 0.03 0.03 56 1012.7
20260506233204 58 86 1.0 6.0 0.00 0.03 0.03 55 1012.6
20260506232703 58 139 0.0 2.0 0.00 0.03 0.03 56 1012.6
20260506232203 58 126 0.0 1.0 0.00 0.03 0.03 56 1012.6
20260506231703 58 122 0.0 1.0 0.00 0.03 0.03 57 1012.4
20260506231204 58 146 0.0 3.0 0.00 0.03 0.03 56 1012.2
20260506230705 58 9 0.0 2.0 0.00 0.03 0.03 57 1012.3
20260506230204 58 14 1.0 3.0 0.00 0.03 0.03 54 1012.4
20260506225704 58 75 1.0 2.0 0.00 0.03 0.03 56 1012.4
20260506225204 58 38 0.0 2.0 0.00 0.03 0.03 54 1012.6
20260506224703 58 127 0.0 3.0 0.00 0.03 0.03 54 1012.5
20260506224203 58 86 0.0 2.0 0.00 0.03 0.03 56 1012.5
20260506223704 58 33 0.0 2.0 0.00 0.03 0.03 54 1012.5
20260506223204 58 123 0.0 0.0 0.00 0.03 0.03 54 1012.6
20260506222704 58 131 0.0 2.0 0.00 0.03 0.03 54 1012.7
20260506221705 58 121 1.0 2.0 0.00 0.03 0.03 54 1012.8
20260506221204 58 0 0.0 0.0 0.00 0.03 0.03 54 1012.9
20260506220703 58 5 0.0 1.0 0.00 0.03 0.03 55 1012.9
20260506220203 58 131 0.0 0.0 0.00 0.03 0.03 56 1012.9
20260506215703 59 121 0.0 3.0 0.00 0.03 0.03 54 1012.8
20260506215204 59 71 1.0 2.0 0.00 0.03 0.03 55 1012.9
20260506214205 59 120 0.0 2.0 0.00 0.03 0.03 55 1012.9
20260506213705 59 105 1.0 2.0 0.00 0.03 0.03 54 1012.7
20260506213203 59 135 0.0 5.0 0.00 0.03 0.03 54 1012.7
20260506212703 59 64 0.0 5.0 0.00 0.03 0.03 53 1012.7
20260506212203 59 19 0.0 2.0 0.00 0.03 0.03 53 1012.6
20260506211704 59 90 0.0 1.0 0.00 0.03 0.03 53 1012.6
20260506211203 59 22 0.0 1.0 0.00 0.03 0.03 53 1012.4
20260506210203 60 13 0.0 3.0 0.00 0.03 0.03 54 1012.3
20260506205703 59 15 0.0 3.0 0.00 0.03 0.03 54 1012.3
20260506205204 59 26 0.0 3.0 0.00 0.03 0.03 54 1012.3
20260506204703 59 23 1.0 5.0 0.00 0.03 0.03 54 1012.3
20260506204204 59 17 1.0 3.0 0.00 0.03 0.03 54 1012.3
20260506203703 59 17 0.0 2.0 0.00 0.03 0.03 53 1012.4
20260506203204 59 10 1.0 3.0 0.00 0.03 0.03 52 1012.5
20260506202704 59 110 1.0 2.0 0.00 0.03 0.03 53 1012.5
20260506202204 59 111 0.0 1.0 0.00 0.03 0.03 53 1012.5
20260506201704 59 120 0.0 2.0 0.00 0.03 0.03 53 1012.4
20260506201203 59 40 0.0 2.0 0.00 0.03 0.03 54 1012.3
20260506200703 59 134 1.0 3.0 0.00 0.03 0.03 52 1012.5
20260506200204 59 63 0.0 0.0 0.00 0.03 0.03 51 1012.4
20260506195704 59 96 0.0 2.0 0.00 0.03 0.03 52 1012.5
20260506195204 59 21 1.0 3.0 0.00 0.03 0.03 50 1012.5
20260506194204 59 123 0.0 0.0 0.00 0.03 0.03 51 1012.4
20260506193704 60 96 0.0 2.0 0.00 0.03 0.03 52 1012.4
20260506193204 60 109 1.0 3.0 0.00 0.03 0.03 52 1012.2
20260506192703 60 82 1.0 2.0 0.00 0.03 0.03 54 1012.1
20260506191204 60 119 2.0 5.0 0.00 0.03 0.03 53 1012.0
20260506190703 61 91 2.0 9.0 0.00 0.03 0.03 54 1012.1
20260506190203 61 89 2.0 9.0 0.00 0.03 0.03 53 1011.9
20260506185703 60 127 0.0 6.0 0.00 0.03 0.03 54 1011.8
20260506185205 60 108 1.0 3.0 0.00 0.03 0.03 53 1011.9
20260506184703 60 134 1.0 6.0 0.00 0.03 0.03 55 1012.0
20260506183705 60 75 1.0 7.0 0.00 0.03 0.03 54 1011.7
20260506182203 60 106 2.0 5.0 0.00 0.03 0.03 54 1011.9
20260506181705 60 87 1.0 5.0 0.00 0.03 0.03 54 1011.8
20260506181203 60 88 2.0 8.0 0.00 0.03 0.03 53 1011.9
20260506175704 60 58 1.0 5.0 0.00 0.03 0.03 52 1012.1
20260506175203 60 86 1.0 2.0 0.00 0.03 0.03 55 1012.2
20260506174703 59 88 0.0 1.0 0.00 0.03 0.03 54 1012.2
20260506174203 59 127 1.0 3.0 0.00 0.03 0.03 53 1012.3
20260506173204 59 90 1.0 6.0 0.00 0.03 0.03 55 1012.4
20260506172703 59 73 3.0 12.0 0.00 0.03 0.03 53 1012.2
20260506171203 59 40 1.0 6.0 0.00 0.03 0.03 58 1012.4
20260506170703 59 43 1.0 5.0 0.00 0.03 0.03 59 1012.6
20260506170204 59 26 0.0 2.0 0.00 0.03 0.03 59 1012.6